Time,TemperatureF,DewpointF,PressureIn,WindDirection,WindDirectionDegrees,WindSpeedMPH,WindSpeedGustMPH,Humidity,HourlyPrecipIn,Conditions,Clouds,dailyrainin,SoftwareType,DateUTC
2013-12-24 00:14:00,-12.0,-12.0,30.71,East,90,0.0,0.0,100,0.00,,,-99.99,Weather View 32 v60,2013-12-24 06:14:00,
2013-12-24 00:29:00,-12.0,-12.0,30.70,North,360,0.0,0.0,100,0.00,,,-99.99,Weather View 32 v60,2013-12-24 06:29:00,
2013-12-24 00:44:00,-12.0,-12.0,30.69,WSW,247,0.0,0.0,100,0.00,,,-99.99,Weather View 32 v60,2013-12-24 06:44:00,
2013-12-24 00:59:00,-12.0,-12.0,30.69,WSW,247,0.0,0.0,100,0.00,,,-99.99,Weather View 32 v60,2013-12-24 06:59:00,
2013-12-24 01:14:00,-12.0,-12.0,30.68,WSW,247,0.0,0.0,100,0.00,,,-99.99,Weather View 32 v60,2013-12-24 07:14:00,
2013-12-24 01:29:00,-12.0,-12.0,30.68,WSW,247,0.0,0.0,100,0.00,,,-99.99,Weather View 32 v60,2013-12-24 07:29:00,
2013-12-24 01:44:00,-12.0,-12.0,30.67,South,180,0.0,0.0,100,0.00,,,-99.99,Weather View 32 v60,2013-12-24 07:44:00,
2013-12-24 01:59:00,-12.0,-12.0,30.67,South,180,0.0,0.0,100,0.00,,,-99.99,Weather View 32 v60,2013-12-24 07:59:00,
2013-12-24 02:04:00,-12.0,-12.0,30.67,South,180,0.0,0.0,100,0.00,,,-99.99,Weather View 32 v60,2013-12-24 08:04:00,
2013-12-24 02:14:00,-11.0,-11.0,30.67,South,180,0.0,0.0,100,0.00,,,-99.99,Weather View 32 v60,2013-12-24 08:14:00,
2013-12-24 02:29:00,-9.0,-9.0,30.65,SE,135,0.0,0.0,100,0.00,,,-99.99,Weather View 32 v60,2013-12-24 08:29:00,
2013-12-24 02:44:00,-9.0,-9.0,30.63,SE,135,0.0,0.0,100,0.00,,,-99.99,Weather View 32 v60,2013-12-24 08:44:00,
2013-12-24 02:59:00,-8.0,-8.0,30.64,SE,135,0.0,0.0,100,0.00,,,-99.99,Weather View 32 v60,2013-12-24 08:59:00,
2013-12-24 03:05:00,-8.0,-8.0,30.64,SE,135,0.0,0.0,100,0.00,,,-99.99,Weather View 32 v60,2013-12-24 09:05:00,
2013-12-24 03:14:00,-7.0,-7.0,30.63,SSE,157,0.0,0.0,100,0.00,,,-99.99,Weather View 32 v60,2013-12-24 09:14:00,
2013-12-24 03:29:00,-5.0,-5.6,30.62,SSW,202,0.0,0.0,97,0.00,,,-99.99,Weather View 32 v60,2013-12-24 09:29:00,
2013-12-24 03:44:00,-3.0,-5.4,30.59,SE,135,0.0,7.0,89,0.00,,,-99.99,Weather View 32 v60,2013-12-24 09:44:00,
2013-12-24 03:59:00,-2.0,-4.9,30.58,SSW,202,0.0,9.0,87,0.00,,,-99.99,Weather View 32 v60,2013-12-24 09:59:00,
2013-12-24 04:05:00,-2.0,-4.9,30.58,SSW,202,0.0,9.0,87,0.00,,,-99.99,Weather View 32 v60,2013-12-24 10:05:00,
2013-12-24 04:14:00,-1.0,-5.7,30.58,ESE,112,0.0,9.0,80,0.00,,,-99.99,Weather View 32 v60,2013-12-24 10:14:00,
2013-12-24 04:29:00,-1.0,-5.9,30.56,SSW,202,0.0,9.0,79,0.00,,,-99.99,Weather View 32 v60,2013-12-24 10:29:00,
2013-12-24 04:44:00,-1.0,-5.7,30.56,SW,225,0.0,9.0,80,0.00,,,-99.99,Weather View 32 v60,2013-12-24 10:44:00,
2013-12-24 04:59:00,-1.0,-5.2,30.54,WSW,247,0.0,9.0,82,0.00,,,-99.99,Weather View 32 v60,2013-12-24 10:59:00,
2013-12-24 05:06:00,-1.0,-5.2,30.54,WSW,247,0.0,9.0,82,0.00,,,-99.99,Weather View 32 v60,2013-12-24 11:06:00,
2013-12-24 05:14:00,-1.0,-5.4,30.54,SW,225,0.0,11.0,81,0.00,,,-99.99,Weather View 32 v60,2013-12-24 11:14:00,
2013-12-24 05:29:00,-1.0,-5.7,30.53,SSW,202,0.0,11.0,80,0.00,,,-99.99,Weather View 32 v60,2013-12-24 11:29:00,
2013-12-24 05:44:00,0.0,-3.9,30.53,South,180,0.0,11.0,83,0.00,,,-99.99,Weather View 32 v60,2013-12-24 11:44:00,
2013-12-24 05:59:00,0.0,-3.9,30.52,SSW,202,2.0,11.0,83,0.00,,,-99.99,Weather View 32 v60,2013-12-24 11:59:00,
2013-12-24 06:07:00,0.0,-3.9,30.52,SSW,202,2.0,11.0,83,0.00,,,-99.99,Weather View 32 v60,2013-12-24 12:07:00,
2013-12-24 06:14:00,0.0,-3.4,30.51,SSW,202,1.0,10.0,85,0.00,,,-99.99,Weather View 32 v60,2013-12-24 12:14:00,
2013-12-24 06:29:00,1.0,-2.7,30.49,WSW,247,0.0,10.0,84,0.00,,,-99.99,Weather View 32 v60,2013-12-24 12:29:00,
2013-12-24 06:44:00,1.0,-2.2,30.48,WSW,247,5.0,12.0,86,0.00,,,-99.99,Weather View 32 v60,2013-12-24 12:44:00,
2013-12-24 06:59:00,2.0,-0.5,30.48,South,180,2.0,14.0,89,0.00,,,-99.99,Weather View 32 v60,2013-12-24 12:59:00,
2013-12-24 07:07:00,2.0,-0.5,30.48,South,180,2.0,14.0,89,0.00,,,-99.99,Weather View 32 v60,2013-12-24 13:07:00,
2013-12-24 07:14:00,3.0,0.5,30.47,SW,225,0.0,15.0,89,0.00,,,-99.99,Weather View 32 v60,2013-12-24 13:14:00,
2013-12-24 07:29:00,4.0,1.7,30.47,SW,225,0.0,15.0,90,0.00,,,-99.99,Weather View 32 v60,2013-12-24 13:29:00,
2013-12-24 07:44:00,5.0,2.7,30.46,SW,225,0.0,15.0,90,0.00,,,-99.99,Weather View 32 v60,2013-12-24 13:44:00,
2013-12-24 07:59:00,6.0,3.2,30.45,SSW,202,0.0,15.0,88,0.00,,,-99.99,Weather View 32 v60,2013-12-24 13:59:00,
2013-12-24 08:08:00,6.0,3.2,30.45,SSW,202,0.0,15.0,88,0.00,,,-99.99,Weather View 32 v60,2013-12-24 14:08:00,
2013-12-24 08:14:00,7.0,4.2,30.45,SW,225,0.0,13.0,88,0.00,,,-99.99,Weather View 32 v60,2013-12-24 14:14:00,
2013-12-24 08:29:00,8.0,5.2,30.44,SW,225,10.0,17.0,88,0.00,,,-99.99,Weather View 32 v60,2013-12-24 14:29:00,
2013-12-24 08:44:00,9.0,5.9,30.42,WSW,247,0.0,17.0,87,0.00,,,-99.99,Weather View 32 v60,2013-12-24 14:44:00,
2013-12-24 08:59:00,10.0,6.4,30.41,WSW,247,0.0,17.0,85,0.00,,,-99.99,Weather View 32 v60,2013-12-24 14:59:00,
2013-12-24 09:08:00,10.0,6.4,30.41,WSW,247,0.0,17.0,85,0.00,,,-99.99,Weather View 32 v60,2013-12-24 15:08:00,
2013-12-24 09:14:00,10.0,6.4,30.41,SSW,202,12.0,17.0,85,0.00,,,-99.99,Weather View 32 v60,2013-12-24 15:14:00,
2013-12-24 09:29:00,11.0,7.6,30.39,South,180,1.0,25.0,86,0.00,,,-99.99,Weather View 32 v60,2013-12-24 15:29:00,
2013-12-24 09:44:00,12.0,8.4,30.39,SSW,202,4.0,25.0,85,0.00,,,-99.99,Weather View 32 v60,2013-12-24 15:44:00,
2013-12-24 09:59:00,12.0,8.4,30.40,SSW,202,12.0,25.0,85,0.00,,,-99.99,Weather View 32 v60,2013-12-24 15:59:00,
2013-12-24 10:09:00,12.0,8.4,30.40,SSW,202,12.0,25.0,85,0.00,,,-99.99,Weather View 32 v60,2013-12-24 16:09:00,
2013-12-24 10:29:00,13.0,9.9,30.37,West,270,3.0,19.0,87,0.00,,,-99.99,Weather View 32 v60,2013-12-24 16:29:00,
2013-12-24 10:44:00,13.0,9.6,30.37,SSE,157,0.0,26.0,86,0.00,,,-99.99,Weather View 32 v60,2013-12-24 16:44:00,
2013-12-24 10:59:00,14.0,10.9,30.36,SW,225,14.0,26.0,87,0.00,,,-99.99,Weather View 32 v60,2013-12-24 16:59:00,
2013-12-24 11:00:00,14.0,10.9,30.36,SW,225,14.0,26.0,87,0.00,,,-99.99,Weather View 32 v60,2013-12-24 17:00:00,
2013-12-24 11:14:00,15.0,12.1,30.37,SSE,157,0.0,26.0,88,0.00,,,-99.99,Weather View 32 v60,2013-12-24 17:14:00,
2013-12-24 11:29:00,15.0,11.8,30.36,West,270,10.0,26.0,87,0.00,,,-99.99,Weather View 32 v60,2013-12-24 17:29:00,
2013-12-24 11:44:00,17.0,13.8,30.34,SSW,202,1.0,18.0,87,0.00,,,-99.99,Weather View 32 v60,2013-12-24 17:44:00,
2013-12-24 11:59:00,17.0,14.1,30.34,SSW,202,9.0,18.0,88,0.00,,,-99.99,Weather View 32 v60,2013-12-24 17:59:00,
2013-12-24 12:00:00,17.0,14.1,30.34,SSW,202,9.0,18.0,88,0.00,,,-99.99,Weather View 32 v60,2013-12-24 18:00:00,
2013-12-24 12:14:00,17.0,14.6,30.30,WSW,247,6.0,17.0,90,0.00,,,-99.99,Weather View 32 v60,2013-12-24 18:14:00,
2013-12-24 12:29:00,17.0,14.6,30.28,SSW,202,7.0,17.0,90,0.00,,,-99.99,Weather View 32 v60,2013-12-24 18:29:00,
2013-12-24 12:44:00,17.0,14.6,30.30,WSW,247,2.0,22.0,90,0.00,,,-99.99,Weather View 32 v60,2013-12-24 18:44:00,
2013-12-24 12:59:00,17.0,14.8,30.29,South,180,6.0,22.0,91,0.00,,,-99.99,Weather View 32 v60,2013-12-24 18:59:00,
2013-12-24 13:00:00,17.0,14.8,30.29,South,180,6.0,22.0,91,0.00,,,-99.99,Weather View 32 v60,2013-12-24 19:00:00,
2013-12-24 13:14:00,18.0,15.3,30.28,West,270,7.0,22.0,89,0.00,,,-99.99,Weather View 32 v60,2013-12-24 19:14:00,
2013-12-24 13:29:00,17.0,14.8,30.30,WSW,247,20.0,28.0,91,0.00,,,-99.99,Weather View 32 v60,2013-12-24 19:29:00,
2013-12-24 13:44:00,17.0,15.1,30.30,West,270,6.0,28.0,92,0.00,,,-99.99,Weather View 32 v60,2013-12-24 19:44:00,
2013-12-24 13:59:00,17.0,15.3,30.28,WSW,247,11.0,28.0,93,0.00,,,-99.99,Weather View 32 v60,2013-12-24 19:59:00,
2013-12-24 14:00:00,17.0,15.3,30.28,WSW,247,11.0,28.0,93,0.00,,,-99.99,Weather View 32 v60,2013-12-24 20:00:00,
2013-12-24 14:14:00,17.0,15.3,30.28,SW,225,8.0,28.0,93,0.00,,,-99.99,Weather View 32 v60,2013-12-24 20:14:00,
2013-12-24 14:29:00,17.0,15.1,30.29,WSW,247,9.0,23.0,92,0.00,,,-99.99,Weather View 32 v60,2013-12-24 20:29:00,
2013-12-24 14:44:00,17.0,15.1,30.28,SSW,202,7.0,23.0,92,0.00,,,-99.99,Weather View 32 v60,2013-12-24 20:44:00,
2013-12-24 14:59:00,17.0,15.1,30.28,SW,225,6.0,23.0,92,0.00,,,-99.99,Weather View 32 v60,2013-12-24 20:59:00,
2013-12-24 15:00:00,17.0,15.1,30.28,SW,225,6.0,23.0,92,0.00,,,-99.99,Weather View 32 v60,2013-12-24 21:00:00,
2013-12-24 15:14:00,17.0,15.1,30.29,SSW,202,3.0,20.0,92,0.00,,,-99.99,Weather View 32 v60,2013-12-24 21:14:00,
2013-12-24 15:29:00,17.0,15.1,30.29,WSW,247,6.0,20.0,92,0.00,,,-99.99,Weather View 32 v60,2013-12-24 21:29:00,
2013-12-24 15:44:00,17.0,14.6,30.29,WSW,247,0.0,20.0,90,0.00,,,-99.99,Weather View 32 v60,2013-12-24 21:44:00,
2013-12-24 15:59:00,17.0,14.8,30.30,South,180,5.0,19.0,91,0.00,,,-99.99,Weather View 32 v60,2013-12-24 21:59:00,
2013-12-24 16:00:00,17.0,14.8,30.30,South,180,5.0,19.0,91,0.00,,,-99.99,Weather View 32 v60,2013-12-24 22:00:00,
2013-12-24 16:14:00,17.0,14.8,30.29,SW,225,6.0,17.0,91,0.00,,,-99.99,Weather View 32 v60,2013-12-24 22:14:00,
2013-12-24 16:29:00,17.0,15.1,30.29,West,270,1.0,17.0,92,0.00,,,-99.99,Weather View 32 v60,2013-12-24 22:29:00,
2013-12-24 16:44:00,18.0,16.1,30.29,SSW,202,0.0,17.0,92,0.00,,,-99.99,Weather View 32 v60,2013-12-24 22:44:00,
2013-12-24 16:59:00,18.0,16.3,30.29,SSW,202,8.0,17.0,93,0.00,,,-99.99,Weather View 32 v60,2013-12-24 22:59:00,
2013-12-24 17:00:00,18.0,16.3,30.29,SSW,202,8.0,17.0,93,0.00,,,-99.99,Weather View 32 v60,2013-12-24 23:00:00,
2013-12-24 17:14:00,18.0,16.6,30.29,SSE,157,2.0,17.0,94,0.00,,,-99.99,Weather View 32 v60,2013-12-24 23:14:00,
2013-12-24 17:29:00,18.0,16.1,30.30,South,180,6.0,15.0,92,0.00,,,-99.99,Weather View 32 v60,2013-12-24 23:29:00,
2013-12-24 17:44:00,18.0,16.6,30.30,West,270,0.0,15.0,94,0.00,,,-99.99,Weather View 32 v60,2013-12-24 23:44:00,
2013-12-24 17:59:00,18.0,16.6,30.30,SSW,202,0.0,13.0,94,0.00,,,-99.99,Weather View 32 v60,2013-12-24 23:59:00,
2013-12-24 18:00:00,18.0,16.6,30.30,SSW,202,0.0,13.0,94,0.00,,,-99.99,Weather View 32 v60,2013-12-25 00:00:00,
2013-12-24 18:14:00,18.0,16.8,30.30,SW,225,0.0,13.0,95,0.00,,,-99.99,Weather View 32 v60,2013-12-25 00:14:00,
2013-12-24 18:29:00,18.0,17.1,30.30,SW,225,2.0,12.0,96,0.00,,,-99.99,Weather View 32 v60,2013-12-25 00:29:00,
2013-12-24 18:44:00,18.0,17.1,30.31,WSW,247,0.0,12.0,96,0.00,,,-99.99,Weather View 32 v60,2013-12-25 00:44:00,
2013-12-24 18:59:00,18.0,17.5,30.31,WSW,247,1.0,12.0,98,0.00,,,-99.99,Weather View 32 v60,2013-12-25 00:59:00,
2013-12-24 19:14:00,18.0,17.5,30.32,SW,225,0.0,11.0,98,0.00,,,-99.99,Weather View 32 v60,2013-12-25 01:14:00,
2013-12-24 19:29:00,18.0,17.8,30.32,WSW,247,0.0,11.0,99,0.00,,,-99.99,Weather View 32 v60,2013-12-25 01:29:00,
2013-12-24 19:44:00,18.0,17.8,30.33,West,270,0.0,11.0,99,0.00,,,-99.99,Weather View 32 v60,2013-12-25 01:44:00,
2013-12-24 19:59:00,19.0,18.5,30.34,SW,225,0.0,11.0,98,0.00,,,-99.99,Weather View 32 v60,2013-12-25 01:59:00,
2013-12-24 20:14:00,19.0,18.3,30.34,WSW,247,0.0,6.0,97,0.00,,,-99.99,Weather View 32 v60,2013-12-25 02:14:00,
2013-12-24 20:29:00,20.0,18.8,30.33,NNW,337,9.0,13.0,95,0.00,,,-99.99,Weather View 32 v60,2013-12-25 02:29:00,
2013-12-24 20:44:00,22.0,20.8,30.32,WNW,292,2.0,13.0,95,0.00,,,-99.99,Weather View 32 v60,2013-12-25 02:44:00,
2013-12-24 20:59:00,22.0,20.5,30.32,WNW,292,0.0,15.0,94,0.00,,,-99.99,Weather View 32 v60,2013-12-25 02:59:00,
2013-12-24 21:14:00,21.0,19.5,30.33,WNW,292,2.0,16.0,94,0.00,,,-99.99,Weather View 32 v60,2013-12-25 03:14:00,
2013-12-24 21:29:00,20.0,18.6,30.34,WNW,292,6.0,19.0,94,0.00,,,-99.99,Weather View 32 v60,2013-12-25 03:29:00,
2013-12-24 21:44:00,19.0,17.6,30.34,NW,315,0.0,19.0,94,0.00,,,-99.99,Weather View 32 v60,2013-12-25 03:44:00,
2013-12-24 21:59:00,19.0,18.0,30.35,NNW,337,0.0,19.0,96,0.00,,,-99.99,Weather View 32 v60,2013-12-25 03:59:00,
2013-12-24 22:14:00,19.0,18.3,30.36,NW,315,14.0,20.0,97,0.00,,,-99.99,Weather View 32 v60,2013-12-25 04:14:00,
2013-12-24 22:29:00,19.0,18.3,30.36,WNW,292,2.0,20.0,97,0.00,,,-99.99,Weather View 32 v60,2013-12-25 04:29:00,
2013-12-24 22:44:00,19.0,18.3,30.36,NNW,337,13.0,20.0,97,0.00,,,-99.99,Weather View 32 v60,2013-12-25 04:44:00,
2013-12-24 22:59:00,19.0,18.3,30.37,North,360,13.0,20.0,97,0.00,,,-99.99,Weather View 32 v60,2013-12-25 04:59:00,
2013-12-24 23:14:00,19.0,18.5,30.38,NW,315,9.0,20.0,98,0.00,,,-99.99,Weather View 32 v60,2013-12-25 05:14:00,
2013-12-24 23:17:00,19.0,18.5,30.38,NW,315,9.0,20.0,98,0.00,,,-99.99,Weather View 32 v60,2013-12-25 05:17:00,
2013-12-24 23:29:00,19.0,18.5,30.38,WNW,292,0.0,19.0,98,0.00,,,-99.99,Weather View 32 v60,2013-12-25 05:29:00,
2013-12-24 23:44:00,20.0,19.5,30.38,NW,315,0.0,19.0,98,0.00,,,-99.99,Weather View 32 v60,2013-12-25 05:44:00,
2013-12-24 23:59:00,20.0,19.3,30.37,North,360,6.0,19.0,97,0.00,,,-99.99,Weather View 32 v60,2013-12-25 05:59:00,